Previsão horária em Barra Bonita

Hoje, 25 Outubro, Domingo

Tempo Temperatura Precipitação Vento Pressão Humidade
00:00 +21°C° 0.3 mm 1 m/s 718 mmHg 95%
01:00 +21°C° 0.7 mm 1 m/s 718 mmHg 96%
02:00 +21°C° 0.7 mm 1 m/s 717 mmHg 96%
03:00 +21°C° 0.7 mm 1 m/s 717 mmHg 96%
04:00 +21°C° 0 mm 1 m/s 717 mmHg 96%
05:00 +21°C° 0 mm 1 m/s 717 mmHg 95%
06:00 +21°C° 0 mm 1 m/s 718 mmHg 95%
07:00 +23°C° 0.3 mm 1 m/s 718 mmHg 88%
08:00 +25°C° 0.3 mm 1 m/s 718 mmHg 81%
09:00 +27°C° 0.3 mm 1 m/s 719 mmHg 74%
10:00 +28°C° 0.2 mm 1 m/s 719 mmHg 68%
11:00 +30°C° 0.2 mm 1 m/s 719 mmHg 63%
12:00 +31°C° 0.2 mm 1 m/s 718 mmHg 58%
13:00 +31°C° 0.4 mm 2 m/s 718 mmHg 59%
14:00 +30°C° 0.4 mm 2 m/s 717 mmHg 60%
15:00 +30°C° 0.4 mm 3 m/s 717 mmHg 60%
16:00 +29°C° 0.2 mm 3 m/s 717 mmHg 64%
17:00 +28°C° 0.2 mm 3 m/s 717 mmHg 68%
18:00 +27°C° 0.2 mm 3 m/s 717 mmHg 71%
19:00 +26°C° 0 mm 3 m/s 717 mmHg 74%
20:00 +24°C° 0 mm 3 m/s 718 mmHg 77%
21:00 +22°C° 0 mm 3 m/s 718 mmHg 80%
22:00 +22°C° 0 mm 3 m/s 718 mmHg 80%
23:00 +21°C° 0 mm 3 m/s 718 mmHg 81%

Amanhã, 26 Outubro, Segunda-feira

Tempo Temperatura Precipitação Vento Pressão Humidade
00:00 +20°C° 0 mm 3 m/s 718 mmHg 81%
01:00 +20°C° 0 mm 3 m/s 718 mmHg 83%
02:00 +19°C° 0 mm 3 m/s 717 mmHg 85%
03:00 +19°C° 0 mm 3 m/s 717 mmHg 87%
04:00 +19°C° 0 mm 3 m/s 717 mmHg 87%
05:00 +19°C° 0 mm 3 m/s 718 mmHg 87%
06:00 +19°C° 0 mm 4 m/s 718 mmHg 88%
07:00 +21°C° 0 mm 3 m/s 718 mmHg 80%
08:00 +24°C° 0 mm 3 m/s 719 mmHg 73%
09:00 +26°C° 0 mm 3 m/s 719 mmHg 66%
10:00 +28°C° 0 mm 2 m/s 719 mmHg 58%
11:00 +30°C° 0 mm 2 m/s 719 mmHg 51%
12:00 +33°C° 0 mm 1 m/s 718 mmHg 43%
13:00 +33°C° 0 mm 1 m/s 718 mmHg 41%
14:00 +34°C° 0 mm 1 m/s 717 mmHg 38%
15:00 +34°C° 0 mm 1 m/s 717 mmHg 36%
16:00 +32°C° 0 mm 1 m/s 716 mmHg 42%
17:00 +31°C° 0 mm 1 m/s 716 mmHg 48%
18:00 +29°C° 0 mm 1 m/s 716 mmHg 54%
19:00 +28°C° 0 mm 1 m/s 716 mmHg 58%
20:00 +27°C° 0 mm 1 m/s 716 mmHg 63%
21:00 +25°C° 0 mm 1 m/s 716 mmHg 67%
22:00 +25°C° 0 mm 1 m/s 716 mmHg 68%
23:00 +25°C° 0 mm 1 m/s 717 mmHg 69%

Depois de amanhã, 27 Outubro, Terça-feira

Tempo Temperatura Precipitação Vento Pressão Humidade
00:00 +24°C° 0 mm 2 m/s 717 mmHg 71%
01:00 +24°C° 0 mm 1 m/s 716 mmHg 73%
02:00 +23°C° 0 mm 1 m/s 716 mmHg 76%
03:00 +22°C° 0 mm 1 m/s 715 mmHg 79%
04:00 +22°C° 0 mm 1 m/s 716 mmHg 81%
05:00 +22°C° 0 mm 1 m/s 716 mmHg 82%
06:00 +22°C° 0 mm 1 m/s 716 mmHg 84%
07:00 +24°C° 0 mm 1 m/s 716 mmHg 76%
08:00 +26°C° 0 mm 2 m/s 717 mmHg 67%
09:00 +29°C° 0 mm 2 m/s 717 mmHg 59%
10:00 +30°C° 0 mm 2 m/s 717 mmHg 55%
11:00 +31°C° 0 mm 3 m/s 717 mmHg 50%
12:00 +34°C° 0 mm 3 m/s 717 mmHg 46%
13:00 +34°C° 0 mm 3 m/s 716 mmHg 44%
14:00 +35°C° 0 mm 3 m/s 715 mmHg 41%
15:00 +35°C° 0 mm 3 m/s 715 mmHg 39%
16:00 +34°C° 0 mm 2 m/s 714 mmHg 43%
17:00 +31°C° 0 mm 2 m/s 714 mmHg 46%
18:00 +30°C° 0 mm 1 m/s 714 mmHg 50%
19:00 +29°C° 0 mm 1 m/s 715 mmHg 55%
20:00 +27°C° 0 mm 1 m/s 715 mmHg 60%
21:00 +26°C° 0 mm 1 m/s 716 mmHg 65%
22:00 +25°C° 0 mm 2 m/s 716 mmHg 71%
23:00 +24°C° 0 mm 3 m/s 716 mmHg 78%

28 Outubro, Quarta-feira

Tempo Temperatura Precipitação Vento Pressão Humidade
00:00 +22°C° 0 mm 3 m/s 716 mmHg 84%
01:00 +22°C° 0 mm 3 m/s 716 mmHg 86%
02:00 +21°C° 0 mm 3 m/s 715 mmHg 88%
03:00 +21°C° 0 mm 2 m/s 715 mmHg 90%
04:00 +21°C° 0 mm 2 m/s 716 mmHg 90%
05:00 +21°C° 0 mm 2 m/s 716 mmHg 90%
06:00 +20°C° 0 mm 2 m/s 716 mmHg 90%
07:00 +24°C° 0 mm 2 m/s 717 mmHg 78%
08:00 +27°C° 0 mm 2 m/s 717 mmHg 67%
09:00 +30°C° 0 mm 1 m/s 718 mmHg 56%
10:00 +32°C° 0 mm 1 m/s 717 mmHg 49%
11:00 +35°C° 0 mm 2 m/s 717 mmHg 42%
12:00 +37°C° 0 mm 2 m/s 717 mmHg 35%
13:00 +36°C° 0 mm 2 m/s 716 mmHg 39%
14:00 +35°C° 0 mm 2 m/s 716 mmHg 42%
15:00 +35°C° 0 mm 2 m/s 715 mmHg 45%
16:00 +34°C° 0 mm 2 m/s 715 mmHg 50%
17:00 +32°C° 0 mm 1 m/s 714 mmHg 54%
18:00 +31°C° 0 mm 1 m/s 714 mmHg 58%
19:00 +29°C° 0.5 mm 1 m/s 714 mmHg 64%
20:00 +28°C° 0.5 mm 1 m/s 715 mmHg 70%
21:00 +27°C° 0.5 mm 1 m/s 715 mmHg 75%
22:00 +26°C° 0.4 mm 1 m/s 716 mmHg 78%
23:00 +26°C° 0.4 mm 2 m/s 716 mmHg 81%

29 Outubro, Quinta-feira

Tempo Temperatura Precipitação Vento Pressão Humidade
00:00 +26°C° 0.4 mm 2 m/s 716 mmHg 84%
01:00 +25°C° 0.3 mm 2 m/s 716 mmHg 87%
02:00 +24°C° 0.3 mm 2 m/s 715 mmHg 90%
03:00 +24°C° 0.3 mm 2 m/s 715 mmHg 93%
04:00 +24°C° 0.1 mm 1 m/s 715 mmHg 93%
05:00 +24°C° 0.1 mm 1 m/s 716 mmHg 93%
06:00 +24°C° 0.1 mm 1 m/s 716 mmHg 92%
07:00 +24°C° 1.4 mm 1 m/s 717 mmHg 92%
08:00 +24°C° 1.4 mm 2 m/s 717 mmHg 91%
09:00 +24°C° 1.4 mm 3 m/s 718 mmHg 90%
10:00 +24°C° 3.8 mm 3 m/s 718 mmHg 91%
11:00 +24°C° 3.8 mm 2 m/s 717 mmHg 92%
12:00 +24°C° 3.8 mm 2 m/s 717 mmHg 94%
13:00 +25°C° 0.3 mm 3 m/s 717 mmHg 90%
14:00 +26°C° 0.3 mm 3 m/s 716 mmHg 86%
15:00 +27°C° 0.3 mm 4 m/s 716 mmHg 82%
16:00 +27°C° 0.1 mm 3 m/s 716 mmHg 83%
17:00 +26°C° 0.1 mm 2 m/s 716 mmHg 84%
18:00 +26°C° 0.1 mm 1 m/s 715 mmHg 85%
19:00 +25°C° 0.2 mm 1 m/s 716 mmHg 88%
20:00 +25°C° 0.2 mm 1 m/s 716 mmHg 91%
21:00 +24°C° 0.2 mm 1 m/s 717 mmHg 94%
22:00 +24°C° 0.1 mm 1 m/s 717 mmHg 94%
23:00 +23°C° 0.1 mm 1 m/s 717 mmHg 94%

30 Outubro, Sexta-feira

Tempo Temperatura Precipitação Vento Pressão Humidade
00:00 +23°C° 0.1 mm 1 m/s 717 mmHg 95%
01:00 +23°C° 0 mm 1 m/s 717 mmHg 95%
02:00 +23°C° 0 mm 1 m/s 717 mmHg 96%
03:00 +22°C° 0 mm 1 m/s 717 mmHg 97%
04:00 +22°C° 0 mm 1 m/s 717 mmHg 97%
05:00 +22°C° 0 mm 1 m/s 718 mmHg 97%
06:00 +22°C° 0 mm 1 m/s 718 mmHg 98%
07:00 +24°C° 0 mm 1 m/s 719 mmHg 91%
08:00 +26°C° 0 mm 2 m/s 719 mmHg 84%
09:00 +27°C° 0 mm 2 m/s 720 mmHg 77%
10:00 +29°C° 0.3 mm 3 m/s 720 mmHg 71%
11:00 +30°C° 0.3 mm 3 m/s 720 mmHg 65%
12:00 +32°C° 0.3 mm 4 m/s 719 mmHg 58%
13:00 +33°C° 0.2 mm 4 m/s 719 mmHg 56%
14:00 +33°C° 0.2 mm 4 m/s 719 mmHg 54%
15:00 +33°C° 0.2 mm 5 m/s 719 mmHg 51%
16:00 +32°C° 0 mm 4 m/s 719 mmHg 56%
17:00 +30°C° 0 mm 3 m/s 719 mmHg 61%
18:00 +28°C° 0 mm 2 m/s 719 mmHg 66%
19:00 +27°C° 0.1 mm 2 m/s 719 mmHg 72%
20:00 +26°C° 0.1 mm 3 m/s 720 mmHg 78%
21:00 +24°C° 0.1 mm 3 m/s 720 mmHg 83%
22:00 +22°C° 0 mm 3 m/s 721 mmHg 85%
23:00 +22°C° 0 mm 4 m/s 721 mmHg 86%
Mostrar mais